Epoch 2014 July 2.0 TT = JDT 2456840.5 T 2014 July 5.95957 TT MPCW q 1.0809747 (2000.0) P Q z +0.0165103 Peri. 23.31199 +0.45982753 -0.80077918 +/-0.0000002 Node 317.66224 -0.87772704 -0.47543744 e 0.9821528 Incl. 145.25840 -0.13473635 +0.36429651 From 1627 observations 2013 Oct. 23-2016 Mar. 3, mean residual 0".5.
H = 12.8 G = 0.15 [ ,-136] ( - 2014 Feb. 19) m1 = 11.0 + 5 log d + 12.5 log r [-136, 130] (2014 Feb. 19 - 2014 Nov. 12) H = 12.8 G = 0.15 [ 130, ] (2014 Nov. 12 - )